Location: Cadeilhan
(42.8161°N, 0.3161°E)
Time: 19:13:40
(UTC+00:00)

STARLINK-1090 - Pass Details

Date: 18 February 2020
Orbit: 379 x 380 km, 53.0° (Epoch: 07 April)

Event Time Altitude Azimuth Distance (km) Brightness Sun altitude
Exits shadow 04:13:26 12° 96° (E) 1,311 6.3 -29.8°
Drops below altitude 10° 04:13:50 10° 90° (E) 1,414 6.6 -29.7°
Enters shadow 05:11:39 -66° 234° (SW) 12,087 10.4 -19.2°
Maximum altitude 05:47:22 55° 328° (NNW) 474 3.1 -12.6°
